Regional Weather Roundup
Issued by NWS

Home | Current Version | Previous Version | Graphics & Text | Print | Product List | Glossary On
Versions: 1 2 3 4 5 6 7 8 9 10 11 12 13 14 15 16 17 18 19 20 21 22 23 24 25 26 27 28 29 30 31 32 33 34 35 36 37 38 39 40 41 42 43 44 45 46 47 48 49 50
000
ASUS43 KMKX 260511
RWRWI

WISCONSIN REGIONAL WEATHER ROUNDUP
NATIONAL WEATHER SERVICE MILWAUKEE/SULLIVAN WI
1200 AM CDT TUE JUL 26 2016

NOTE: "FAIR" INDICATES FEW OR NO CLOUDS BELOW 12,000 FEET WITH NO
SIGNIFICANT WEATHER AND/OR OBSTRUCTIONS TO VISIBILITY.

WIZ001-002-006>008-014>016-023>028-260600-
NORTHWEST WISCONSIN

CITY           SKY/WX    TMP DP  RH WIND       PRES   REMARKS
SUPERIOR ARPT  CLEAR     69  65  89 SW6       29.98S
ASHLAND        CLEAR     70  63  78 SW7       30.00R
HAYWARD        CLEAR     66  62  87 CALM      30.04R
SIREN          CLEAR     70  64  83 CALM      30.03S
CUMBERLAND     CLEAR     63  61  94 CALM      30.05S
RICE LAKE      CLEAR     65  63  94 CALM      30.06S
CHETEK         CLEAR     66  65  96 CALM      30.04S
LADYSMITH      CLEAR     65  62  89 CALM      30.06S
EAU CLAIRE     CLEAR     69  65  86 CALM      30.04R
MENOMONIE      CLEAR     68  60  76 CALM      30.05R
NEW RICHMOND   CLEAR     67  66  95 CALM      30.05R
OSCEOLA        CLEAR     67  67 100 CALM      30.06S
$$

WIZ003>005-009-010-017-018-260600-
NORTH CENTRAL WISCONSIN

CITY           SKY/WX    TMP DP  RH WIND       PRES   REMARKS
MANITOWISH WTR CLEAR     58  58 100 CALM      30.04S
ARBOR VITAE    CLEAR     62  60  93 CALM      30.06R
WOODRUFF       CLEAR     62  60  93 CALM      30.06R
RHINELANDER    CLEAR     60  57  89 W5        30.07R
EAGLE RIVER    PTCLDY    57  56  99 CALM      30.05R
LAND O LAKES   CLEAR     57  57  98 CALM      30.05S
PHILLIPS       CLEAR     63  62  94 CALM      30.05R
TOMAHAWK       CLEAR     58  56  95 CALM      30.06S
MEDFORD        CLEAR     59  59 100 CALM      30.07R
MERRILL        CLEAR     61  61  98 CALM      30.07R
$$

WIZ029-030-035-036-043>047-260600-
CENTRAL WISCONSIN

CITY           SKY/WX    TMP DP  RH WIND       PRES   REMARKS
WAUSAU         CLEAR     66  61  84 CALM      30.04R
MOSINEE        CLEAR     66  63  88 W5        30.07R
MARSHFIELD     CLEAR     67  61  81 CALM      30.06R
STEVENS POINT  CLEAR     62  60  96 CALM      30.06R
WAUPACA        CLEAR     67  66  94 CALM      30.04R
WAUTOMA        CLEAR     64  62  93 CALM      30.05R
WISC RAPIDS    CLEAR     65  61  87 CALM      30.06S
CAMP DOUGLAS   FOG       61  59  94 CALM      30.06R VSB 3/4
$$

WIZ011>013-019>022-031-037>040-048>050-260600-
NORTHEAST WISCONSIN

CITY           SKY/WX    TMP DP  RH WIND       PRES   REMARKS
ANTIGO         CLEAR     60  60  97 CALM      30.07R
SHAWANO        CLEAR     66  62  88 W3        30.03S
OCONTO         CLEAR    N/A N/A N/A CALM      30.01R
STURGEON BAY   CLEAR     68  63  84 CALM      30.01R
GREEN BAY      CLEAR     68  66  93 CALM      30.01R
MANITOWOC      CLEAR     71  63  75 W7        30.02R
APPLETON       CLEAR     68  59  73 W8        30.02R
CLINTONVILLE   CLEAR     68  61  77 W6        30.03S
OSHKOSH        CLEAR     71  61  70 W5        30.03R
$$

WIZ032>034-041-042-053>061-260600-
SOUTHWEST WISCONSIN

CITY           SKY/WX    TMP DP  RH WIND       PRES   REMARKS
LA CROSSE      CLEAR     71  66  84 SE6       30.05R
SPARTA         CLEAR     62  62  99 CALM      30.07S
VIROQUA        CLEAR     65  64  99 CALM      30.08R
BOSCOBEL       CLEAR     66  65  96 CALM      30.06R FOG
PRAIRIE DU CHI CLEAR     67  64  90 CALM      30.06R
PLATTEVILLE    CLEAR     67  67  98 N3        30.07R
$$

WIZ056-057-062-063-064-067-068-260600-
SOUTH CENTRAL WISCONSIN

CITY           SKY/WX    TMP DP  RH WIND       PRES   REMARKS
REEDSBURG      CLEAR     65  65 100 CALM      30.06R
BARABOO/DELLS  CLEAR     66  62  89 CALM      30.06R
LONE ROCK      CLEAR     67  65  93 W3        30.06R
MINERAL POINT  CLEAR     68  64  88 NW3       30.07S
MADISON        CLEAR     67  65  93 N3        30.04S
MIDDLETON      CLEAR     67  67  99 CALM      30.06R
WATERTOWN      CLEAR     67  67 100 CALM      30.04R
MONROE         CLEAR     72  63  73 NW6       30.06R
JANESVILLE     CLEAR     70  68  94 CALM      30.04S
$$

WIZ051-052-058>065-066-070>072-260600-
SOUTHEAST WISCONSIN

CITY           SKY/WX    TMP DP  RH WIND       PRES   REMARKS
MILWAUKEE      PTCLDY    75  64  68 SW3       30.03R
WAUKESHA       CLEAR     68  63  83 W3        30.05R
MILWAUKEE/TIMM CLEAR     70  59  68 CALM      30.04R
RACINE         CLEAR     72  61  68 W5        30.04R
BURLINGTON     CLEAR     65  64  97 CALM      30.04R
KENOSHA        CLEAR     67  62  84 CALM      30.03S
FOND DU LAC    CLEAR     68  61  78 W5        30.03R
SHEBOYGAN      CLEAR     64  62  93 CALM      30.03R
WEST BEND      CLEAR     64  63  94 CALM      30.04R
JUNEAU         CLEAR     65  64  95 CALM      30.05S
$$

LSZ147-162-260600-
LAKE SUPERIOR

STATION/POSITION TIME  TEMP    WIND        PRES    WAVE
                       AIR SEA DIR/SP/G            HT/PER
                 (UTC) (F)     (DEG/KT/KT) (MB)    (FT/S)
W MID LAKE BUOY  0450   64 60  220/  6/  6 1013.7S   1/ 3
DEVILS ISLAND    0500   71     240/ 12/ 14 1014.5R
SAXON HARBOR     0400   69     200/  7/  8 1014.9
$$

LMZ867-665-643>646-260600-
LAKE MICHIGAN

STATION/POSITION TIME  TEMP    WIND        PRES    WAVE
                       AIR SEA DIR/SP/G            HT/PER
                 (UTC) (F)     (DEG/KT/KT) (MB)    (FT/S)
CHAMBERS ISLAND  0400   65     240/  4/  4 1015.6R
S GREEN BAY BUOY 0400   75 74  260/  8/  8   N/A
N MID LAKE BUOY  0450   71 70  170/  6/  8 1015.1R   1
NORTHPORT PIER   0400   71     170/  2/  5 1015.2R
SISTER BAY       0421   68        CALM       N/A
ALGOMA LAKESHORE 0413             CALM       N/A
KEWAUNEE LAKESHO 0400   71     300/  4/  4 1015.2
SHEBOYGAN LAKESH 0500   74     270/  6/  7 1016.4R
PORT WASHINGTON  0400   69     280/  2/  3 1016.9
ATWATER BUOY     0500   60 53  250/  2/  2 1018.2R
MILWAUKEE LAKESH 0410   70     240/  1/  1   N/A
S MID LAKE BUOY  0450   74 74  230/  4/  4 1016.0R   0
KENOSHA   LAKESH 0500   74     230/  2/  4 1016.3S
$$

TC  - TEMPERATURE IN CELSIUS
VSB - VISIBILITY IN STATUTE MILES
WCI - WIND CHILL INDEX
HX  - HEAT INDEX




USA.gov is the U.S. government's official web portal to all federal, state and local government web resources and services.